When you browse on this site, cookies collect data to enhance your experience and personalize the content and advertising you see.
Visit our Privacy Policy to learn more. By continuing to use the site, you agree to this use of cookies and data.
  • In Switzerland
  • List of Countries
  • For 7 days
  • Water Temperature
  • Weather Map
  • Weather Widgets
  • user-avatar
    Login

    Hourly Weather Franceville

    Today, 21 October, Monday

    Time Temperature Precipitation Wind Pressure Humidity
    00:00 +22°C° 0 mm 0 mps 731 mmHg 95%
    01:00 +21°C° 0 mm 0 mps 731 mmHg 95%
    02:00 +21°C° 0 mm 0 mps 731 mmHg 95%
    03:00 +21°C° 0 mm 0 mps 731 mmHg 96%
    04:00 +21°C° 0 mm 0 mps 731 mmHg 96%
    05:00 +21°C° 0.4 mm 0 mps 731 mmHg 96%
    06:00 +21°C° 0.4 mm 0 mps 732 mmHg 96%
    07:00 +24°C° 0.4 mm 1 mps 733 mmHg 95%
    08:00 +26°C° 0.1 mm 1 mps 733 mmHg 86%
    09:00 +28°C° 0.1 mm 1 mps 733 mmHg 77%
    10:00 +28°C° 0.1 mm 0 mps 733 mmHg 67%
    11:00 +32°C° 0 mm 1 mps 732 mmHg 60%
    12:00 +33°C° 0 mm 1 mps 731 mmHg 53%
    13:00 +35°C° 0 mm 1 mps 730 mmHg 45%
    14:00 +34°C° 0 mm 1 mps 729 mmHg 48%
    15:00 +34°C° 0 mm 1 mps 729 mmHg 50%
    16:00 +33°C° 0 mm 1 mps 728 mmHg 52%
    17:00 +31°C° 0 mm 1 mps 728 mmHg 60%
    18:00 +29°C° 0 mm 1 mps 729 mmHg 67%
    19:00 +25°C° 0 mm 0 mps 730 mmHg 75%
    20:00 +25°C° 0.1 mm 0 mps 730 mmHg 78%
    21:00 +26°C° 0.1 mm 1 mps 730 mmHg 81%
    22:00 +26°C° 0.1 mm 1 mps 730 mmHg 84%
    23:00 +25°C° 0.8 mm 1 mps 730 mmHg 88%

    Tomorrow, 22 October, Tuesday

    Time Temperature Precipitation Wind Pressure Humidity
    00:00 +24°C° 0.8 mm 1 mps 730 mmHg 91%
    01:00 +24°C° 0.8 mm 1 mps 730 mmHg 95%
    02:00 +24°C° 0.4 mm 1 mps 730 mmHg 96%
    03:00 +24°C° 0.4 mm 1 mps 729 mmHg 97%
    04:00 +22°C° 0.4 mm 0 mps 729 mmHg 97%
    05:00 +22°C° 0 mm 0 mps 730 mmHg 97%
    06:00 +22°C° 0 mm 0 mps 731 mmHg 96%
    07:00 +23°C° 0 mm 0 mps 732 mmHg 96%
    08:00 +25°C° 1.6 mm 1 mps 732 mmHg 95%
    09:00 +26°C° 1.6 mm 1 mps 732 mmHg 94%
    10:00 +27°C° 1.6 mm 1 mps 732 mmHg 92%
    11:00 +26°C° 0.8 mm 1 mps 731 mmHg 93%
    12:00 +26°C° 0.8 mm 1 mps 731 mmHg 93%
    13:00 +25°C° 0.8 mm 1 mps 730 mmHg 94%
    14:00 +26°C° 0 mm 1 mps 729 mmHg 90%
    15:00 +25°C° 0 mm 0 mps 729 mmHg 87%
    16:00 +25°C° 0 mm 0 mps 728 mmHg 83%
    17:00 +25°C° 0 mm 0 mps 729 mmHg 87%
    18:00 +24°C° 0 mm 0 mps 729 mmHg 90%
    19:00 +23°C° 0 mm 0 mps 730 mmHg 94%
    20:00 +23°C° 0 mm 0 mps 730 mmHg 95%
    21:00 +22°C° 0 mm 0 mps 730 mmHg 95%
    22:00 +22°C° 0 mm 0 mps 730 mmHg 96%
    23:00 +22°C° 0 mm 0 mps 730 mmHg 96%

    Day after tomorrow, 23 October, Wednesday

    Time Temperature Precipitation Wind Pressure Humidity
    00:00 +22°C° 0 mm 0 mps 730 mmHg 96%
    01:00 +22°C° 0 mm 0 mps 729 mmHg 96%
    02:00 +22°C° 0 mm 0 mps 729 mmHg 96%
    03:00 +21°C° 0 mm 0 mps 729 mmHg 96%
    04:00 +21°C° 0 mm 0 mps 728 mmHg 96%
    05:00 +22°C° 0 mm 0 mps 729 mmHg 94%
    06:00 +22°C° 0 mm 0 mps 730 mmHg 93%
    07:00 +23°C° 0 mm 0 mps 731 mmHg 91%
    08:00 +24°C° 0 mm 0 mps 731 mmHg 84%
    09:00 +26°C° 0 mm 0 mps 731 mmHg 78%
    10:00 +27°C° 0 mm 0 mps 731 mmHg 72%
    11:00 +30°C° 0.3 mm 1 mps 730 mmHg 68%
    12:00 +31°C° 0.3 mm 1 mps 729 mmHg 63%
    13:00 +32°C° 0.3 mm 1 mps 728 mmHg 59%
    14:00 +32°C° 0.1 mm 1 mps 728 mmHg 59%
    15:00 +32°C° 0.1 mm 1 mps 727 mmHg 60%
    16:00 +32°C° 0.1 mm 1 mps 727 mmHg 60%
    17:00 +30°C° 0.6 mm 1 mps 727 mmHg 70%
    18:00 +28°C° 0.6 mm 1 mps 728 mmHg 80%
    19:00 +26°C° 0.6 mm 1 mps 728 mmHg 90%
    20:00 +26°C° 3 mm 1 mps 729 mmHg 92%
    21:00 +25°C° 3 mm 1 mps 730 mmHg 93%
    22:00 +25°C° 3 mm 1 mps 730 mmHg 95%
    23:00 +25°C° 7.1 mm 1 mps 730 mmHg 96%

    24 October, Thursday

    Time Temperature Precipitation Wind Pressure Humidity
    00:00 +25°C° 7.1 mm 1 mps 730 mmHg 97%
    01:00 +24°C° 7.1 mm 1 mps 730 mmHg 98%
    02:00 +24°C° 3.4 mm 1 mps 729 mmHg 98%
    03:00 +24°C° 3.4 mm 1 mps 729 mmHg 98%
    04:00 +24°C° 3.4 mm 1 mps 729 mmHg 99%
    05:00 +24°C° 0.2 mm 1 mps 730 mmHg 98%
    06:00 +22°C° 0.2 mm 0 mps 731 mmHg 98%
    07:00 +22°C° 0.2 mm 0 mps 731 mmHg 97%
    08:00 +24°C° 1.3 mm 0 mps 731 mmHg 94%
    09:00 +25°C° 1.3 mm 0 mps 731 mmHg 90%
    10:00 +28°C° 1.3 mm 1 mps 731 mmHg 87%
    11:00 +29°C° 1.6 mm 1 mps 731 mmHg 85%
    12:00 +29°C° 1.6 mm 1 mps 730 mmHg 83%
    13:00 +30°C° 1.6 mm 1 mps 729 mmHg 81%
    14:00 +29°C° 1.2 mm 1 mps 728 mmHg 82%
    15:00 +29°C° 1.2 mm 1 mps 728 mmHg 83%
    16:00 +27°C° 1.2 mm 0 mps 728 mmHg 84%
    17:00 +28°C° 2 mm 1 mps 728 mmHg 88%
    18:00 +26°C° 2 mm 1 mps 729 mmHg 91%
    19:00 +25°C° 2 mm 2 mps 730 mmHg 94%
    20:00 +25°C° 1.7 mm 2 mps 730 mmHg 96%
    21:00 +24°C° 1.7 mm 1 mps 731 mmHg 97%
    22:00 +24°C° 1.7 mm 1 mps 731 mmHg 98%
    23:00 +24°C° 1 mm 1 mps 731 mmHg 98%

    25 October, Friday

    Time Temperature Precipitation Wind Pressure Humidity
    00:00 +24°C° 1 mm 1 mps 731 mmHg 98%
    01:00 +24°C° 1 mm 1 mps 730 mmHg 97%
    02:00 +22°C° 3.1 mm 0 mps 730 mmHg 98%
    03:00 +22°C° 3.1 mm 0 mps 730 mmHg 98%
    04:00 +22°C° 3.1 mm 0 mps 730 mmHg 98%
    05:00 +22°C° 5 mm 0 mps 731 mmHg 99%
    06:00 +24°C° 5 mm 1 mps 731 mmHg 99%
    07:00 +24°C° 5 mm 1 mps 732 mmHg 99%
    08:00 +25°C° 0.3 mm 1 mps 732 mmHg 95%
    09:00 +26°C° 0.3 mm 1 mps 732 mmHg 90%
    10:00 +27°C° 0.3 mm 1 mps 732 mmHg 86%
    11:00 +27°C° 1.4 mm 1 mps 731 mmHg 86%
    12:00 +28°C° 1.4 mm 1 mps 730 mmHg 87%
    13:00 +28°C° 1.4 mm 1 mps 729 mmHg 87%
    14:00 +29°C° 0.2 mm 1 mps 729 mmHg 81%
    15:00 +30°C° 0.2 mm 1 mps 729 mmHg 75%
    16:00 +30°C° 0.2 mm 1 mps 728 mmHg 69%
    17:00 +27°C° 0 mm 0 mps 729 mmHg 74%
    18:00 +26°C° 0 mm 0 mps 729 mmHg 80%
    19:00 +24°C° 0 mm 0 mps 730 mmHg 86%
    20:00 +24°C° 0.4 mm 0 mps 730 mmHg 89%
    21:00 +23°C° 0.4 mm 0 mps 731 mmHg 92%
    22:00 +23°C° 0.4 mm 0 mps 731 mmHg 94%
    23:00 +22°C° 1.2 mm 0 mps 731 mmHg 95%

    26 October, Saturday

    Time Temperature Precipitation Wind Pressure Humidity
    00:00 +22°C° 1.2 mm 0 mps 730 mmHg 97%
    01:00 +22°C° 1.2 mm 0 mps 730 mmHg 98%
    02:00 +22°C° 0 mm 0 mps 730 mmHg 98%
    03:00 +21°C° 0 mm 0 mps 730 mmHg 98%
    04:00 +21°C° 0 mm 0 mps 730 mmHg 97%
    05:00 +21°C° 0 mm 0 mps 730 mmHg 97%
    06:00 +22°C° 0 mm 0 mps 731 mmHg 97%
    07:00 +22°C° 0 mm 0 mps 731 mmHg 96%
    08:00 +23°C° 0 mm 0 mps 731 mmHg 91%
    09:00 +24°C° 0 mm 0 mps 732 mmHg 86%
    10:00 +25°C° 0 mm 0 mps 732 mmHg 81%
    11:00 +25°C° 0 mm 0 mps 731 mmHg 78%
    12:00 +28°C° 0 mm 1 mps 731 mmHg 76%
    13:00 +28°C° 0 mm 1 mps 730 mmHg 73%
    14:00 +28°C° 0 mm 1 mps 729 mmHg 73%
    15:00 +28°C° 0 mm 1 mps 729 mmHg 72%
    16:00 +29°C° 0 mm 1 mps 729 mmHg 71%
    17:00 +26°C° 0 mm 0 mps 729 mmHg 76%
    18:00 +24°C° 0 mm 0 mps 729 mmHg 81%
    19:00 +23°C° 0 mm 0 mps 729 mmHg 86%
    20:00 +23°C° 0 mm 0 mps 730 mmHg 87%
    21:00 +23°C° 0 mm 0 mps 730 mmHg 87%
    22:00 +23°C° 0 mm 0 mps 731 mmHg 88%
    23:00 +23°C° 0.2 mm 0 mps 730 mmHg 90%

    27 October, Sunday

    Time Temperature Precipitation Wind Pressure Humidity
    00:00 +22°C° 0.2 mm 0 mps 730 mmHg 92%
    01:00 +22°C° 0.2 mm 0 mps 730 mmHg 94%
    02:00 +22°C° 0 mm 0 mps 730 mmHg 94%
    03:00 +22°C° 0 mm 0 mps 729 mmHg 95%
    04:00 +22°C° 0 mm 0 mps 729 mmHg 96%
    05:00 +22°C° 0 mm 0 mps 730 mmHg 94%
    06:00 +23°C° 0 mm 0 mps 730 mmHg 93%
    07:00 +23°C° 0 mm 0 mps 731 mmHg 91%
    08:00 +24°C° 0.1 mm 0 mps 731 mmHg 84%
    09:00 +28°C° 0.1 mm 1 mps 731 mmHg 77%
    10:00 +29°C° 0.1 mm 1 mps 732 mmHg 70%
    11:00 +29°C° 1.1 mm 1 mps 731 mmHg 74%
    12:00 +29°C° 1.1 mm 1 mps 730 mmHg 77%
    13:00 +29°C° 1.1 mm 1 mps 729 mmHg 81%
    14:00 +29°C° 2.2 mm 1 mps 729 mmHg 84%
    15:00 +28°C° 2.2 mm 1 mps 728 mmHg 87%
    16:00 +28°C° 2.2 mm 1 mps 728 mmHg 90%
    17:00 +27°C° 1.5 mm 1 mps 729 mmHg 91%
    18:00 +24°C° 1.5 mm 0 mps 729 mmHg 92%
    19:00 +23°C° 1.5 mm 0 mps 730 mmHg 94%
    20:00 +23°C° 2.3 mm 0 mps 730 mmHg 95%
    21:00 +22°C° 2.3 mm 0 mps 730 mmHg 96%
    22:00 +22°C° 2.3 mm 0 mps 731 mmHg 98%
    23:00 +22°C° 6.5 mm 0 mps 730 mmHg 98%
    Show more